Location: Asheville, NC
(35.6000°N, 82.5500°W)
Time: 22:49:27
(UTC-04:00)

Vanguard 2 - Pass Details

Date: 15 December 2017
Orbit: 553 x 2939 km, 32.9° (Epoch: 26 April)

Event Time Altitude Azimuth Distance (km) Brightness Sun altitude
Rises 14:26:33 0° 235° (SW) 5,553 13.0 24.5°
Reaches altitude 10° 14:31:00 10° 230° (SW) 4,150 12.8 24.0°
Maximum altitude 14:40:29 44° 164° (SSE) 1,652 10.0 23.0°
Drops below altitude 10° 14:46:22 10° 93° (E) 2,587 10.0 22.3°
Sets 14:48:32 0° 86° (E) 3,317 10.4 22.1°
